FW8051 Weather Reports


time (UTC)temp
F
wind
direction
speed
knots
gust
knots
rain 1hr
in
rain 24hr
in
rain mn
in
humidity
%
barometer
mb
20260504003037 57 269 5.2 9.6 0.00 0.00 0.00 83 1017.2
20260504001536 59 164 7.8 16.5 0.00 0.00 0.00 83 1017.3
20260504000037 58 190 7.0 14.8 0.00 0.00 0.00 87 1017.5
20260503234543 57 222 5.2 10.4 0.00 0.00 0.00 86 1017.6
20260503233038 57 242 5.2 9.6 0.00 0.00 0.00 85 1017.7
20260503231536 57 204 4.3 7.8 0.00 0.00 0.00 84 1017.7
20260503230039 59 212 5.2 12.2 0.00 0.00 0.00 83 1017.9
20260503224536 58 241 7.0 12.2 0.00 0.00 0.00 83 1018.0
20260503223041 58 186 4.3 11.3 0.00 0.00 0.00 85 1018.1
20260503221542 58 261 4.3 8.7 0.00 0.00 0.00 84 1018.0
20260503220042 59 225 5.2 8.7 0.00 0.00 0.00 86 1018.0
20260503214535 58 215 3.5 8.7 0.00 0.00 0.00 86 1018.0
20260503213046 57 256 4.3 7.8 0.00 0.00 0.00 85 1018.1
20260503211542 58 276 1.7 7.8 0.00 0.00 0.00 84 1018.0
20260503210048 58 360 3.5 7.0 0.00 0.00 0.00 84 1018.0
20260503204549 58 235 4.3 8.7 0.00 0.00 0.00 84 1018.2
20260503203038 58 261 5.2 8.7 0.00 0.00 0.00 84 1018.3
20260503201540 59 259 5.2 9.6 0.00 0.00 0.00 83 1018.2
20260503200049 60 266 2.6 7.8 0.00 0.00 0.00 83 1018.2
20260503194546 61 193 4.3 7.8 0.00 0.00 0.00 85 1018.1
20260503193050 60 219 2.6 7.8 0.00 0.00 0.00 83 1018.2
20260503191541 61 266 3.5 7.0 0.00 0.00 0.00 82 1018.1
20260503190042 63 198 5.2 8.7 0.00 0.00 0.00 83 1017.9
20260503184546 63 198 5.2 9.6 0.00 0.00 0.00 84 1017.9
20260503183054 63 188 8.7 13.9 0.00 0.00 0.00 83 1018.0
20260503181543 63 360 8.7 15.6 0.00 0.00 0.00 83 1017.7
20260503180044 63 196 7.8 13.0 0.00 0.00 0.00 82 1017.8
20260503174539 63 191 8.7 13.9 0.00 0.00 0.00 82 1017.8
20260503173105 63 200 8.7 17.4 0.00 0.00 0.00 80 1017.8
20260503171536 64 186 10.4 15.6 0.00 0.00 0.00 79 1017.8
20260503081542 62 150 8.7 13.9 0.00 0.00 0.00 80 1020.5
20260503071539 62 140 7.0 10.4 0.00 0.00 0.00 79 1020.2
20260503054544 54 275 5.2 8.7 0.00 0.00 0.00 80 1020.0
20260503053042 52 265 5.2 8.7 0.00 0.00 0.00 80 1020.1
20260503051542 51 259 6.1 8.7 0.00 0.00 0.00 80 1020.2
20260503050037 50 266 7.0 9.6 0.00 0.00 0.00 80 1020.0
20260503044535 50 257 6.1 9.6 0.00 0.00 0.00 80 1020.1
20260503043043 49 263 6.1 10.4 0.00 0.00 0.00 80 1020.2
20260503041542 49 253 7.0 10.4 0.00 0.00 0.00 79 1019.9
20260503040047 50 273 7.0 9.6 0.00 0.00 0.00 79 1019.9
20260503034554 50 251 7.0 9.6 0.00 0.00 0.00 79 1020.0
20260503033044 50 257 7.0 10.4 0.00 0.00 0.00 79 1020.2
20260503031541 50 250 7.8 10.4 0.00 0.00 0.00 78 1020.3
20260503030052 50 261 7.0 10.4 0.00 0.00 0.00 78 1020.4
20260503024545 50 250 7.0 10.4 0.00 0.00 0.00 78 1020.5
20260503023041 50 247 7.0 10.4 0.00 0.00 0.00 78 1020.4
20260503021543 49 260 7.8 10.4 0.00 0.00 0.00 78 1020.4
20260503020041 50 274 7.8 10.4 0.00 0.00 0.00 78 1020.4
20260503014548 49 257 7.0 10.4 0.00 0.00 0.00 78 1020.5
20260503013042 50 257 7.0 10.4 0.00 0.00 0.00 78 1020.5
20260503011540 50 257 7.0 9.6 0.00 0.00 0.00 78 1020.6
20260503010045 50 261 7.0 9.6 0.00 0.00 0.00 78 1020.6
20260503004546 50 263 7.0 10.4 0.00 0.00 0.00 78 1020.9